Location: Schommer Observatory
(40.5200°N, 74.4500°W)
Time: 04:18:12
(UTC-04:00)

N. Korean satellite - Pass Details

Date: 13 October 2017
Orbit: 459 x 517 km, 97.2° (Epoch: 20 October)

Event Time Altitude Azimuth Distance (km) Brightness Sun altitude
Rises 19:46:09 0° 197° (SSW) 2,554 10.4 -17.1°
Reaches altitude 10° 19:48:35 10° 213° (SSW) 1,667 9.6 -17.6°
Maximum altitude 19:51:23 21° 265° (W) 1,119 9.3 -18.1°
Drops below altitude 10° 19:54:10 10° 317° (NW) 1,653 9.9 -18.6°
Sets 19:56:34 0° 333° (NNW) 2,526 10.7 -19.1°
